OE-11140 Weather Reports


time (UTC)temp
C
wind
direction
speed
KPH
gust
KPH
rain 1hr
cm
rain 24hr
cm
rain mn
cm
humidity
%
barometer
mb
20260903073516 16 172 3.2 11.3 0.00 0.00 0.00 71 1022.9
20260903072516 16 214 6.4 16.1 0.00 0.00 0.00 73 1022.9
20260903071130 15 190 3.2 8.0 0.00 0.00 0.00 77 1023.1
20260903070517 16 230 1.6 4.8 0.00 0.00 0.00 81 1022.9
20260903065517 15 189 1.6 6.4 0.00 0.00 0.00 79 1023.1
20260903064129 15 100 1.6 3.2 0.00 0.00 0.00 81 1023.2
20260903063516 15 148 1.6 3.2 0.00 0.00 0.00 80 1023.2
20260903062517 15 285 0.0 3.2 0.00 0.00 0.00 82 1023.2
20260903061130 15 264 3.2 6.4 0.00 0.00 0.00 82 1023.2
20260903060517 14 224 3.2 6.4 0.00 0.00 0.00 80 1023.2
20260903055516 14 75 3.2 6.4 0.00 0.00 0.00 83 1023.2
20260903054129 13 256 3.2 8.0 0.00 0.00 0.00 83 1023.1
20260903053517 13 193 1.6 8.0 0.00 0.00 0.00 86 1023.2
20260903052517 13 93 1.6 3.2 0.00 0.00 0.00 85 1023.1
20260903051130 13 360 0.0 3.2 0.00 0.00 0.00 87 1023.1
20260903050516 13 72 0.0 4.8 0.00 0.00 0.00 86 1022.9
20260903045517 13 30 0.0 4.8 0.00 0.00 0.00 86 1023.0
20260903044129 13 14 1.6 3.2 0.00 0.00 0.00 87 1023.0
20260903043516 13 56 1.6 3.2 0.00 0.00 0.00 87 1022.9
20260903042517 13 360 0.0 3.2 0.00 0.00 0.00 87 1022.6
20260903041129 13 103 1.6 3.2 0.00 0.00 0.00 87 1022.7
20260903040517 13 345 0.0 3.2 0.00 0.00 0.00 87 1023.0
20260903035517 13 124 1.6 3.2 0.00 0.00 0.00 87 1022.7
20260903034516 13 147 1.6 3.2 0.00 0.00 0.00 87 1022.9
20260903033517 13 301 0.0 3.2 0.00 0.00 0.00 85 1022.8
20260903032517 13 119 1.6 4.8 0.00 0.00 0.00 86 1023.0
20260903031130 13 276 0.0 3.2 0.00 0.00 0.00 87 1022.8
20260903030517 13 100 0.0 3.2 0.00 0.00 0.00 87 1022.9
20260903025517 13 67 1.6 3.2 0.00 0.00 0.00 87 1022.9
20260903024517 13 54 0.0 4.8 0.00 0.00 0.00 86 1022.8
20260903023517 13 79 3.2 4.8 0.00 0.00 0.00 86 1022.6
20260903022517 13 169 0.0 4.8 0.00 0.00 0.00 86 1022.5
20260903021129 13 303 1.6 4.8 0.00 0.00 0.00 88 1022.6
20260903020517 13 44 1.6 6.4 0.00 0.00 0.00 88 1022.6
20260903015517 13 89 1.6 3.2 0.00 0.00 0.00 90 1022.5
20260903014129 13 360 0.0 4.8 0.00 0.00 0.00 87 1022.5
20260903013516 13 323 1.6 4.8 0.00 0.00 0.00 89 1022.5
20260903012516 13 62 1.6 3.2 0.00 0.00 0.00 88 1022.4
20260903011130 14 166 1.6 4.8 0.00 0.00 0.00 86 1022.3
20260903010517 13 98 1.6 3.2 0.00 0.00 0.00 88 1022.3
20260903005517 14 70 0.0 3.2 0.00 0.00 0.00 87 1022.3
20260903004130 14 92 1.6 3.2 0.00 0.00 0.00 87 1022.3
20260903003517 14 10 0.0 3.2 0.00 0.00 0.00 84 1022.1
20260903002517 14 300 1.6 3.2 0.00 0.00 0.00 86 1022.2
20260903001529 14 93 0.0 1.6 0.00 0.00 0.00 86 1022.1
20260903000516 14 351 1.6 3.2 0.00 0.00 0.00 85 1022.2
20260902235516 14 152 0.0 3.2 0.00 0.00 0.00 84 1022.1
20260902234130 14 165 0.0 3.2 0.00 0.00 0.00 84 1022.2
20260902233516 14 128 0.0 3.2 0.00 0.00 0.00 84 1022.3
20260902232516 14 245 0.0 3.2 0.00 0.00 0.00 85 1022.3
20260902231517 14 360 0.0 3.2 0.00 0.00 0.00 84 1022.3
20260902230517 15 73 1.6 4.8 0.00 0.00 0.00 83 1022.3
20260902225517 14 55 0.0 3.2 0.00 0.00 0.00 85 1022.3
20260902224130 14 96 0.0 3.2 0.00 0.00 0.00 84 1022.3
20260902223517 14 88 1.6 3.2 0.00 0.00 0.00 84 1022.3
20260902222517 14 360 0.0 3.2 0.00 0.00 0.00 84 1022.2
20260902221130 14 43 3.2 4.8 0.00 0.00 0.00 85 1022.1
20260902220516 15 47 1.6 6.4 0.00 0.00 0.00 85 1022.0
20260902215516 15 307 1.6 3.2 0.00 0.00 0.00 82 1021.9
20260902214130 15 199 1.6 4.8 0.00 0.00 0.00 81 1021.7
20260902213516 15 209 1.6 4.8 0.00 0.00 0.00 81 1021.7
20260902211131 15 322 0.0 3.2 0.00 0.00 0.00 80 1021.4
20260902210517 15 113 1.6 3.2 0.00 0.00 0.00 82 1021.4
20260902205517 15 84 0.0 3.2 0.00 0.00 0.00 81 1021.4
20260902204131 15 360 1.6 3.2 0.00 0.00 0.00 82 1021.3
20260902203516 16 70 1.6 4.8 0.00 0.00 0.00 81 1021.2
20260902202517 16 360 0.0 3.2 0.00 0.00 0.00 76 1020.9
20260902201130 16 308 1.6 4.8 0.00 0.00 0.00 77 1021.0
20260902200517 16 69 3.2 6.4 0.00 0.00 0.00 79 1020.8
20260902195517 17 302 1.6 4.8 0.00 0.00 0.00 75 1020.8
20260902194130 17 241 3.2 6.4 0.00 0.00 0.00 72 1020.7
20260902193517 17 155 1.6 3.2 0.00 0.00 0.00 74 1020.7
20260902192516 17 224 1.6 4.8 0.00 0.00 0.00 71 1020.6
20260902191130 18 257 3.2 6.4 0.00 0.00 0.00 67 1020.2
20260902190516 17 209 1.6 4.8 0.00 0.00 0.00 71 1020.1
20260902185517 17 246 0.0 3.2 0.00 0.00 0.00 74 1020.0
20260902184130 18 25 1.6 4.8 0.00 0.00 0.00 71 1019.7
20260902183517 18 35 1.6 4.8 0.00 0.00 0.00 74 1019.6
20260902182517 19 28 0.0 3.2 0.00 0.00 0.00 67 1019.4
20260902181130 20 272 3.2 6.4 0.00 0.00 0.00 64 1019.0
20260902180517 20 30 3.2 6.4 0.00 0.00 0.00 62 1018.9
20260902175517 21 35 4.8 8.0 0.00 0.00 0.00 60 1018.7
20260902174130 21 12 4.8 11.3 0.00 0.00 0.00 58 1018.3
20260902173516 21 338 6.4 9.7 0.00 0.00 0.00 56 1018.2
20260902172517 21 337 6.4 14.5 0.00 0.00 0.00 55 1017.9
20260902171130 21 335 6.4 9.7 0.00 0.00 0.00 55 1017.9
20260902170517 22 332 6.4 14.5 0.00 0.00 0.00 53 1017.7
20260902165517 22 320 6.4 14.5 0.00 0.00 0.00 52 1017.7
20260902164130 22 336 6.4 20.9 0.00 0.00 0.00 52 1017.6
20260902163517 22 335 8.0 16.1 0.00 0.00 0.00 51 1017.4
20260902162517 23 326 6.4 14.5 0.00 0.00 0.00 51 1017.2
20260902161130 23 335 8.0 16.1 0.00 0.00 0.00 48 1017.1
20260902160516 23 336 8.0 14.5 0.00 0.00 0.00 48 1017.0
20260902155517 24 332 8.0 17.7 0.00 0.00 0.00 47 1017.0
20260902154130 24 333 6.4 14.5 0.00 0.00 0.00 50 1016.8
20260902153517 24 321 6.4 12.9 0.00 0.00 0.00 46 1016.9
20260902152516 24 334 6.4 14.5 0.00 0.00 0.00 46 1016.9
20260902151130 24 351 6.4 16.1 0.00 0.00 0.00 45 1016.9
20260902150517 25 343 8.0 14.5 0.00 0.00 0.00 46 1016.8
20260902145517 25 1 8.0 17.7 0.00 0.00 0.00 47 1016.9
20260902144130 25 352 8.0 19.3 0.00 0.00 0.00 48 1016.9
20260902143516 25 5 9.7 17.7 0.00 0.00 0.00 48 1017.1
20260902142517 25 5 9.7 19.3 0.00 0.00 0.00 49 1017.0
20260902141130 25 356 8.0 19.3 0.00 0.00 0.00 48 1017.1
20260902140517 24 1 8.0 19.3 0.00 0.00 0.00 48 1017.0
20260902135517 25 10 9.7 17.7 0.00 0.00 0.00 50 1016.8
20260902134129 24 12 9.7 17.7 0.00 0.00 0.00 47 1017.1
20260902133517 24 15 11.3 19.3 0.00 0.00 0.00 50 1017.1
20260902132517 23 20 9.7 20.9 0.00 0.00 0.00 48 1017.3
20260902131130 24 20 9.7 24.1 0.00 0.00 0.00 49 1017.2
20260902130517 23 358 9.7 22.5 0.00 0.00 0.00 50 1017.5
20260902125517 24 359 9.7 19.3 0.00 0.00 0.00 47 1017.5
20260902124129 24 350 8.0 17.7 0.00 0.00 0.00 47 1017.3
20260902123517 24 352 8.0 20.9 0.00 0.00 0.00 46 1017.4
20260902122517 24 359 6.4 16.1 0.00 0.00 0.00 44 1017.5
20260902121130 25 350 6.4 17.7 0.00 0.00 0.00 42 1017.4
20260902120516 25 5 6.4 14.5 0.00 0.00 0.00 45 1017.6
20260902115516 24 353 4.8 12.9 0.00 0.00 0.00 45 1017.7
20260902114130 25 197 3.2 9.7 0.00 0.00 0.00 42 1017.4
20260902113517 24 222 3.2 9.7 0.00 0.00 0.00 43 1017.7
20260902112517 24 298 4.8 11.3 0.00 0.00 0.00 43 1017.8
20260902111130 24 251 3.2 11.3 0.00 0.00 0.00 44 1017.8
20260902110517 24 245 4.8 9.7 0.00 0.00 0.00 44 1018.1
20260902105516 23 247 1.6 9.7 0.00 0.00 0.00 45 1018.3
20260902104130 23 337 3.2 6.4 0.00 0.00 0.00 43 1018.6
20260902103517 23 311 3.2 9.7 0.00 0.00 0.00 44 1018.7
20260902102516 23 329 1.6 8.0 0.00 0.00 0.00 48 1018.7
20260902101130 23 41 3.2 8.0 0.00 0.00 0.00 46 1019.0
20260902100517 23 106 3.2 8.0 0.00 0.00 0.00 54 1019.0
20260902095517 22 93 1.6 6.4 0.00 0.00 0.00 52 1019.3
20260902094130 21 95 1.6 6.4 0.00 0.00 0.00 52 1019.6
20260902093517 22 100 3.2 8.0 0.00 0.00 0.00 58 1019.6
20260902092517 21 100 3.2 8.0 0.00 0.00 0.00 56 1019.9
20260902091129 21 106 3.2 8.0 0.00 0.00 0.00 56 1020.0
20260902090517 20 188 3.2 8.0 0.00 0.00 0.00 61 1020.1
20260902084129 20 133 3.2 12.9 0.00 0.00 0.00 63 1020.2
20260902083517 20 132 3.2 8.0 0.00 0.00 0.00 61 1020.4
20260902082517 19 124 3.2 11.3 0.00 0.00 0.00 66 1020.6
20260902081129 18 113 3.2 6.4 0.00 0.00 0.00 67 1020.8
20260902080517 18 169 4.8 14.5 0.00 0.00 0.00 70 1020.9
20260902075517 18 134 3.2 8.0 0.00 0.00 0.00 68 1021.0
20260902074130 17 136 3.2 9.7 0.00 0.00 0.00 71 1021.0